Wind_Speed
55 56 56 55 56 57 55 54 52 50 47 44 44 45 44 42 43 44 43 41 35 28 24 21 20 19 18 18 16 17 21 23 23 20 14 9 9 11 12 12 12 11 10 8 7 8 10 12 13 14 15 16 17 18 18 18 18 18 18 18 19 20 20
56 56 57 58 58 58 58 56 53 49 49 49 47 47 48 47 47 47 46 43 38 34 29 24 22 21 19 17 16 14 16 20 22 20 14 8 9 13 15 14 14 13 12 11 10 10 12 13 14 15 15 15 16 16 17 17 17 17 18 19 19 19 20
56 57 58 60 61 60 60 58 53 52 55 54 50 51 52 51 51 51 48 45 41 37 31 25 24 23 19 17 18 16 15 17 18 17 11 9 11 13 16 16 16 14 12 12 11 11 13 14 14 15 15 14 13 13 14 15 15 16 17 17 17 18 19
56 59 61 63 63 63 62 61 59 58 57 55 53 52 52 52 52 52 50 47 42 36 30 27 25 24 21 18 17 17 16 16 15 12 9 10 12 13 15 16 15 14 12 13 13 14 15 15 14 15 14 13 12 12 12 13 14 15 15 14 15 16 17
56 60 62 62 62 63 63 63 63 61 59 58 56 53 52 53 53 52 51 50 44 35 30 27 25 24 22 19 16 15 16 15 12 10 10 12 11 12 15 16 15 14 15 15 15 17 17 17 15 14 13 13 12 12 12 13 13 13 13 13 13 14 15
57 58 59 59 61 63 64 63 63 61 60 59 58 56 56 55 54 54 53 53 47 38 32 29 27 26 23 20 19 17 15 15 13 12 13 13 11 12 16 17 16 17 18 18 18 19 19 18 17 15 13 12 11 11 12 12 11 11 12 12 12 14 15
56 56 56 57 60 64 65 65 63 61 61 61 59 59 57 55 55 56 56 56 52 42 34 30 28 26 25 23 22 19 17 17 17 16 17 17 15 15 18 20 19 20 20 20 20 21 21 19 17 15 13 12 11 11 11 11 10 11 12 12 13 15 17
54 53 53 54 57 61 66 68 66 64 64 63 61 60 57 56 56 56 56 57 55 46 37 32 29 26 26 26 24 21 19 18 19 21 21 20 19 20 21 22 22 22 22 21 22 22 22 21 18 16 14 12 11 11 10 10 11 13 13 14 15 17 20
54 53 54 55 57 60 64 67 67 66 66 65 64 63 60 60 60 58 58 59 56 47 38 34 32 30 29 29 28 26 24 22 23 24 22 20 21 22 21 20 21 22 21 22 23 23 23 21 18 16 14 12 11 12 12 12 13 14 15 16 18 20 23
56 58 58 59 59 59 61 63 65 67 67 67 67 66 65 66 65 62 61 60 55 46 39 36 35 34 32 29 26 23 22 22 25 24 21 21 23 23 22 21 21 21 22 23 23 23 22 18 15 14 13 13 13 13 14 15 15 16 17 18 20 22 25
55 57 58 56 54 54 57 58 61 64 67 68 68 67 68 68 66 65 62 57 52 46 40 38 37 36 34 29 23 18 16 20 23 22 22 24 24 24 24 23 22 22 23 24 23 22 20 17 15 14 14 14 15 15 16 16 16 17 18 20 22 24 28
51 52 53 51 48 48 50 52 54 57 61 64 65 67 67 65 66 66 59 53 52 48 41 38 38 37 37 34 26 20 18 20 22 21 22 23 23 24 23 22 22 23 24 24 22 21 19 18 17 16 15 16 17 17 17 17 17 18 19 22 24 26 28
48 47 48 48 47 45 44 46 49 51 55 59 62 64 64 64 67 64 56 51 52 47 41 39 37 36 36 34 30 25 23 23 23 22 22 22 22 22 21 20 21 23 23 22 20 19 19 19 18 16 17 17 18 18 18 17 18 19 21 23 25 26 27
45 44 43 44 45 45 43 44 45 46 50 55 57 59 60 62 64 61 56 54 51 46 43 41 38 37 36 34 32 28 26 26 26 25 24 23 22 22 20 18 18 19 20 20 20 19 17 18 17 16 15 16 18 19 19 19 20 21 22 23 23 24 24
44 42 40 40 41 42 43 45 45 45 47 51 54 55 57 60 61 58 57 57 53 48 45 42 40 38 36 34 33 29 26 26 26 25 24 23 22 22 20 17 16 18 20 21 20 19 18 19 18 16 15 15 16 19 20 21 22 22 23 22 22 23 25
43 40 38 39 39 39 42 45 47 46 48 50 53 54 56 58 58 57 58 58 55 49 45 42 41 39 36 34 32 27 26 26 27 26 25 23 22 21 19 18 18 20 22 22 22 20 20 22 22 21 19 17 18 19 20 22 23 24 25 24 25 26 30
43 40 39 40 39 40 45 49 50 49 49 51 53 54 56 57 57 58 58 57 53 49 45 42 41 39 37 34 29 26 25 26 27 28 27 25 24 22 22 22 22 23 24 23 23 23 23 24 25 25 24 23 22 23 23 24 25 26 27 28 29 31 33
44 42 41 42 43 45 50 52 51 50 50 50 52 54 56 56 56 57 56 54 52 50 44 40 39 39 37 33 28 26 26 26 26 26 26 27 26 25 26 27 26 26 26 25 26 27 27 27 27 28 27 26 27 27 26 27 28 29 30 31 32 33 34
44 44 42 44 46 47 49 50 49 49 49 49 51 53 55 55 55 56 54 52 52 50 43 38 38 39 38 34 30 29 28 27 26 25 26 28 27 27 29 29 29 29 29 28 29 30 30 31 31 30 29 29 30 29 29 30 31 32 33 34 35 36 37
44 45 45 47 47 47 47 47 46 46 48 49 51 53 56 57 56 56 54 52 51 48 43 39 39 39 38 37 35 32 31 28 26 26 27 28 29 30 29 29 30 31 31 31 32 33 34 34 33 30 30 32 32 31 32 33 34 35 36 37 38 39 41
45 47 49 49 48 47 47 47 45 45 47 49 51 53 55 57 57 55 53 50 49 47 43 41 40 38 37 37 37 34 32 29 27 27 28 29 32 33 31 31 32 34 34 35 37 38 38 36 33 31 33 34 34 33 34 36 37 39 39 40 41 42 45
47 49 51 50 49 48 47 46 45 43 44 46 48 52 55 56 56 54 51 49 48 45 42 41 40 37 36 37 37 35 32 31 30 29 29 32 35 36 35 36 37 37 38 39 41 41 39 35 34 34 35 36 35 35 36 38 40 41 42 42 43 45 47
48 50 51 50 49 49 47 45 42 41 42 42 43 49 55 56 54 52 49 47 45 41 39 39 38 37 37 37 36 34 32 32 32 32 32 35 38 40 41 41 41 41 41 42 42 40 38 36 37 37 37 36 36 37 39 40 43 45 44 44 46 48 49
49 49 48 47 48 48 47 45 41 38 37 37 40 48 55 54 50 48 46 44 42 40 39 39 38 37 38 37 35 33 32 34 35 34 35 37 40 43 44 44 45 44 43 43 41 38 38 39 39 38 37 38 39 40 42 44 46 47 46 48 50 50 50
51 47 43 42 45 47 45 43 41 36 32 34 41 49 52 49 47 46 43 41 40 40 40 40 39 38 38 36 34 34 34 36 36 35 36 38 40 42 45 46 46 45 43 41 40 39 39 39 39 38 38 40 42 45 47 48 49 49 49 51 52 52 53
52 48 42 40 41 43 43 41 38 35 33 34 38 43 46 47 46 45 43 41 39 38 39 39 39 39 38 36 36 36 37 37 37 36 37 38 39 41 43 44 44 42 40 38 38 38 38 38 38 40 42 44 47 49 50 49 50 50 51 52 53 55 55
51 48 43 41 39 38 39 40 39 36 35 32 31 34 41 45 46 45 44 43 39 36 37 38 37 36 35 35 36 36 36 36 37 37 37 37 38 39 39 39 40 38 38 38 39 40 42 42 42 44 45 47 49 50 50 51 51 51 52 53 54 54 53
50 48 44 42 41 37 36 38 39 37 35 31 28 30 35 41 45 46 45 43 41 37 36 35 35 34 33 34 35 36 36 37 39 39 38 36 34 35 36 37 38 40 43 44 45 46 46 44 43 44 46 47 49 51 52 53 52 52 52 53 53 53 54
47 47 45 43 42 38 36 38 39 36 34 30 28 28 31 35 40 44 43 40 39 38 36 34 34 35 36 37 36 35 35 37 39 42 44 42 39 38 38 38 39 41 44 45 46 45 43 42 42 44 45 47 50 53 54 53 52 52 52 54 55 55 54
45 45 44 41 38 35 35 39 41 39 35 32 31 31 33 33 35 37 38 38 37 38 37 36 35 36 38 39 38 36 34 34 34 36 39 41 41 40 39 38 38 39 41 42 43 43 43 43 42 43 45 46 50 54 54 52 52 51 51 52 52 49 43
40 42 42 40 37 34 33 36 41 41 39 38 39 39 38 37 35 34 35 35 36 38 38 37 36 37 38 39 39 38 36 34 33 33 34 36 37 37 37 37 37 38 39 41 42 42 42 42 41 42 44 47 51 53 52 51 51 52 50 48 43 37 34
34 39 41 40 38 36 35 37 42 43 42 43 44 43 42 40 38 38 38 38 38 38 38 37 36 36 37 38 39 39 38 37 36 35 35 36 36 36 38 38 37 37 38 40 39 38 39 39 39 40 43 46 48 51 51 52 53 52 47 42 38 35 35
30 36 41 40 38 37 38 41 44 45 46 46 44 43 43 44 43 42 42 41 40 39 38 37 37 37 37 37 39 41 41 40 39 37 37 37 38 39 39 38 38 38 38 37 36 35 36 37 38 39 40 40 40 42 44 45 46 44 42 40 39 38 38
27 31 35 36 36 37 38 40 44 46 48 50 47 42 41 43 45 45 45 44 44 43 41 39 39 40 40 40 41 41 40 39 39 38 38 39 39 39 38 38 38 38 38 37 37 36 36 37 38 39 39 38 36 35 35 35 35 36 38 39 39 38 38
22 24 26 30 33 36 36 37 41 45 49 51 50 48 46 45 45 46 46 46 46 47 45 44 43 43 43 43 42 40 39 38 38 38 38 39 38 38 38 39 39 39 39 39 38 37 36 37 38 40 41 40 38 36 33 32 33 35 37 38 38 38 38
22 22 22 24 29 35 37 36 37 41 44 45 45 47 48 46 45 46 47 47 47 47 47 47 47 45 44 42 40 39 38 39 39 39 39 39 39 38 38 39 39 39 38 37 37 37 37 38 39 40 41 41 39 37 35 34 35 36 37 38 39 38 39
25 24 24 24 25 31 36 38 37 36 37 38 39 40 41 41 40 41 43 43 45 45 44 44 43 42 41 40 39 39 39 39 39 39 40 39 39 38 37 36 37 37 36 36 37 37 38 38 39 40 41 40 39 38 37 36 37 37 38 39 39 39 40
Wind_Direction
221 221 220 218 217 219 221 224 225 226 226 227 231 235 236 236 237 238 239 240 241 238 227 211 206 210 215 225 232 230 234 239 245 253 254 238 240 256 264 262 257 261 264 262 266 269 267 266 266 267 268 269 271 272 274 273 271 271 270 270 269 270 274
221 221 221 220 219 220 222 223 225 226 226 227 229 232 234 235 236 239 240 240 241 242 235 220 218 225 226 233 242 245 250 252 250 251 254 253 252 257 259 255 256 265 266 260 265 274 276 275 274 273 271 271 272 273 272 271 270 268 267 267 269 273 276
221 222 222 221 220 220 222 224 226 226 227 227 227 229 232 233 236 239 241 241 240 238 234 227 228 232 231 237 244 248 262 263 247 239 244 255 255 255 260 265 269 269 260 260 272 281 282 281 278 277 276 275 273 266 264 267 269 269 269 271 274 276 278
221 222 222 222 221 220 220 222 224 225 227 229 229 231 234 235 237 240 242 243 242 237 233 230 232 233 232 236 240 248 262 259 237 225 230 243 248 250 257 266 269 266 260 263 277 286 288 288 284 280 280 279 275 263 256 258 263 268 272 274 276 278 282
220 221 222 222 223 222 221 221 222 223 224 226 228 231 234 236 238 241 243 246 246 242 237 234 234 237 237 240 244 252 261 257 243 237 239 243 244 241 249 260 263 263 265 267 275 284 288 291 290 285 281 278 271 258 248 248 253 259 265 268 273 279 285
219 221 222 223 225 226 225 224 224 224 223 225 227 230 232 234 237 240 243 246 249 246 239 234 235 239 242 247 252 253 255 256 255 252 248 252 253 240 244 255 260 262 266 268 274 279 284 289 291 285 278 269 257 244 241 245 249 252 258 265 273 282 288
220 221 223 224 226 226 227 227 227 226 226 227 229 232 233 234 236 239 241 245 248 247 242 238 236 239 245 252 255 251 247 252 259 258 251 254 257 245 240 247 252 257 260 264 270 275 281 287 287 279 269 256 243 237 238 245 252 258 263 269 277 283 288
220 221 223 224 225 225 226 227 227 226 226 228 232 235 237 238 239 240 241 244 246 247 246 246 244 244 248 251 252 249 247 251 261 265 258 254 255 250 245 243 243 248 254 261 267 272 279 285 282 271 261 252 245 244 247 254 263 268 273 278 283 286 289
219 219 221 223 224 224 225 226 228 228 228 228 230 233 236 238 239 241 242 244 246 247 247 248 251 253 254 255 256 257 257 255 260 266 261 249 247 248 248 245 243 248 256 258 261 268 278 283 277 266 258 255 254 255 260 266 271 277 283 288 290 291 293
223 221 221 222 224 225 225 225 226 228 229 229 230 231 233 235 238 239 240 242 244 246 246 246 248 252 255 259 264 267 263 255 257 261 253 241 241 244 247 250 250 252 252 251 256 266 273 275 271 265 260 259 261 263 267 272 278 285 290 292 291 290 288
230 226 224 223 226 228 229 228 226 227 229 230 231 231 232 235 238 239 240 241 243 244 244 244 245 246 247 252 260 265 260 252 256 256 244 237 239 241 246 252 252 247 245 247 254 261 261 262 266 267 264 262 263 265 270 277 283 289 291 290 288 285 285
233 230 225 223 224 229 232 232 231 229 229 230 231 231 231 233 237 240 240 240 241 242 241 242 244 246 246 247 251 255 252 248 250 249 242 239 240 242 248 253 249 242 241 245 251 252 250 252 261 266 264 263 263 265 271 278 285 290 290 289 287 288 290
235 231 226 222 221 224 228 232 233 232 230 231 232 231 231 232 235 239 241 240 241 242 242 242 244 247 250 250 247 246 245 243 242 245 246 243 242 246 255 260 252 243 241 245 248 247 248 251 258 265 266 265 265 267 271 278 286 291 291 291 293 294 297
235 231 225 222 220 220 221 225 229 231 231 231 232 233 232 233 236 240 242 242 241 241 241 242 244 247 252 251 243 239 241 244 245 246 246 243 243 250 258 261 256 246 244 247 249 253 259 262 264 268 268 267 269 270 271 276 284 291 295 297 297 296 299
234 230 223 219 218 217 217 219 223 227 229 230 231 232 232 233 235 238 240 241 240 238 238 240 241 244 248 246 240 236 237 245 248 245 242 242 245 251 254 257 257 252 250 254 258 263 269 272 275 277 274 276 278 276 275 278 284 291 298 301 298 297 300
232 227 221 218 216 215 215 215 217 221 225 227 228 229 230 231 233 236 239 239 238 236 236 238 239 240 241 241 238 232 230 237 243 242 242 244 246 249 253 260 263 258 256 260 264 266 269 273 278 280 280 284 288 287 287 289 292 297 301 301 298 299 302
230 225 220 219 218 217 217 216 216 218 221 224 226 227 227 229 231 233 236 237 237 237 236 238 239 238 238 237 231 225 226 231 236 239 243 247 249 251 257 265 266 261 260 262 263 265 269 272 276 277 280 286 290 291 294 296 297 300 301 299 298 299 301
230 226 220 219 219 221 222 220 218 218 220 222 226 226 226 227 229 231 233 234 236 237 236 237 238 237 236 232 223 220 224 226 230 235 239 245 250 255 260 263 260 256 258 262 263 264 267 270 272 275 279 285 288 291 295 297 298 300 300 298 297 297 300
229 227 223 221 222 223 224 221 218 218 219 222 225 227 226 226 228 230 231 231 234 236 235 237 237 235 232 227 220 218 222 224 227 230 234 241 248 254 257 256 251 252 257 260 260 261 262 264 268 273 278 282 284 289 294 297 298 298 298 297 296 297 299
230 229 226 225 225 224 223 220 217 218 220 221 224 227 227 226 226 228 229 230 233 236 236 236 235 232 229 225 221 220 223 227 231 232 233 237 242 245 246 243 242 247 251 253 254 255 258 263 270 274 276 277 281 287 293 296 297 297 296 295 295 297 300
230 230 230 229 227 226 225 223 220 219 220 222 225 228 228 227 226 226 226 228 232 236 238 235 233 232 231 226 222 223 227 231 234 236 235 234 236 237 235 232 235 241 245 249 252 256 262 269 274 274 274 277 282 287 292 296 297 296 295 294 295 298 301
227 228 231 231 229 228 228 226 223 222 222 223 226 229 230 228 226 224 224 226 231 236 237 234 233 234 232 228 224 226 230 232 235 239 238 234 233 234 234 234 238 244 248 250 255 262 269 272 272 271 275 281 284 287 292 296 297 296 294 294 297 301 303
227 226 228 232 231 230 229 227 226 226 226 227 229 231 231 228 225 223 222 225 229 233 235 234 234 234 233 230 228 229 231 234 238 241 239 236 234 235 238 243 247 249 251 253 259 266 269 268 268 271 276 280 283 287 292 296 298 297 295 295 298 301 302
229 225 226 229 231 231 231 229 227 228 229 230 233 233 231 228 224 221 220 224 230 233 234 234 233 232 231 230 230 230 232 236 240 242 240 239 239 240 244 248 250 251 253 257 261 264 263 264 269 274 277 280 284 288 292 294 297 297 295 295 298 299 300
227 226 226 228 230 232 232 230 227 228 229 232 235 236 233 229 224 220 220 225 230 233 234 233 232 229 228 228 229 230 232 236 241 243 243 243 244 245 247 249 250 251 255 257 259 259 260 265 271 275 279 283 287 290 293 294 295 296 295 296 298 299 299
224 224 224 226 229 231 232 229 225 225 229 233 237 238 234 228 223 220 221 224 227 231 232 232 231 230 229 230 232 234 237 240 243 245 246 247 248 250 251 251 251 252 254 255 256 259 263 270 275 279 284 288 290 291 292 292 293 294 294 296 298 299 298
221 222 222 223 227 230 230 226 222 222 226 231 234 234 231 227 223 221 222 225 228 230 230 230 231 233 234 235 237 239 241 241 241 243 244 245 247 247 248 248 250 252 254 255 258 262 267 272 277 281 285 287 288 289 289 290 292 292 293 295 298 297 294
217 218 220 221 225 226 224 220 219 221 224 225 226 225 224 224 223 221 223 227 230 230 229 230 232 235 238 238 239 241 242 240 239 240 240 241 243 242 241 246 252 256 258 261 264 267 270 273 277 280 281 283 287 290 291 291 292 292 293 295 297 294 291
216 216 219 221 223 220 215 214 216 218 219 218 217 217 218 221 222 222 224 228 230 230 229 231 234 237 239 240 242 244 246 245 244 243 242 241 243 243 245 252 259 262 264 267 270 271 272 274 276 280 284 286 289 292 293 293 293 294 294 294 294 292 290
221 216 216 219 218 210 205 210 214 215 214 211 207 207 211 216 219 222 225 228 230 231 231 234 237 239 241 242 243 244 245 246 249 251 250 249 250 252 255 260 262 265 267 269 270 272 274 276 280 285 289 291 291 291 292 292 292 292 292 291 290 290 287
227 219 213 214 215 207 201 207 215 218 217 210 202 200 204 209 214 218 222 225 229 232 234 236 238 240 241 241 240 239 238 240 245 250 253 255 256 258 259 260 261 263 266 268 270 274 279 283 286 289 291 293 292 290 290 291 290 289 289 287 284 283 281
234 225 214 211 213 212 206 207 214 220 220 212 203 200 203 208 212 216 219 224 228 231 232 233 234 236 238 239 237 237 238 240 243 246 248 251 253 255 257 260 263 265 267 270 274 278 283 287 290 291 292 292 291 289 288 287 286 285 284 280 277 278 278
240 233 221 214 213 212 209 209 212 217 221 217 209 203 204 209 214 217 220 223 227 228 227 227 228 230 232 233 234 236 239 242 246 250 254 256 257 257 258 261 265 267 269 272 277 283 286 287 288 288 289 291 292 291 287 284 283 281 279 277 278 279 280
240 240 235 230 223 213 208 209 211 214 218 219 213 206 205 208 213 218 221 223 225 226 225 224 224 226 227 229 231 235 240 245 249 253 255 257 257 257 260 265 267 269 272 276 279 282 284 285 284 284 285 288 291 292 289 285 282 280 278 279 281 281 281
229 236 240 240 233 223 216 214 214 213 215 217 212 207 207 209 212 215 219 222 225 228 229 229 226 226 228 231 234 239 243 246 249 250 251 253 256 261 266 269 270 272 274 277 278 279 281 282 282 282 282 284 286 287 286 283 280 278 278 279 280 280 281
217 223 231 235 235 231 228 226 219 210 208 210 209 207 208 211 212 212 216 220 224 227 230 231 230 229 231 233 236 239 242 243 246 250 252 256 261 266 268 269 269 270 273 274 276 277 278 279 279 279 280 281 281 280 279 277 275 275 276 276 277 279 280
212 214 220 225 229 230 232 234 230 217 206 206 209 211 213 216 216 217 219 222 225 228 230 231 232 233 235 236 238 240 243 245 249 254 258 262 266 267 267 266 267 268 270 272 273 275 275 276 276 277 278 278 277 275 274 273 273 274 274 275 276 278 279
Height
5839 5843 5846 5849 5851 5853 5856 5858 5858 5861 5866 5870 5871 5871 5873 5876 5876 5875 5875 5877 5880 5884 5888 5891 5893 5895 5896 5897 5898 5899 5900 5900 5900 5900 5901 5902 5902 5902 5903 5903 5903 5904 5904 5904 5904 5905 5904 5904 5905 5905 5905 5904 5904 5905 5905 5905 5905 5905 5905 5904 5904 5904 5904
5834 5839 5842 5845 5847 5849 5851 5852 5855 5860 5864 5865 5867 5868 5868 5870 5870 5869 5870 5873 5877 5879 5882 5887 5890 5892 5894 5896 5897 5898 5898 5898 5899 5899 5900 5900 5900 5900 5900 5901 5901 5901 5902 5903 5903 5903 5903 5903 5903 5902 5903 5903 5903 5903 5902 5902 5902 5902 5902 5902 5902 5902 5902
5829 5833 5836 5838 5841 5843 5845 5848 5853 5857 5857 5858 5861 5862 5861 5863 5864 5864 5866 5869 5872 5874 5878 5883 5887 5889 5891 5893 5894 5895 5896 5897 5897 5897 5898 5898 5898 5898 5898 5899 5899 5899 5900 5900 5901 5901 5901 5901 5901 5900 5900 5900 5900 5900 5900 5900 5900 5900 5900 5899 5900 5899 5899
5821 5824 5827 5829 5833 5837 5839 5843 5847 5850 5852 5854 5857 5857 5858 5860 5861 5861 5863 5864 5866 5870 5876 5880 5883 5886 5888 5890 5891 5893 5894 5894 5894 5895 5895 5896 5896 5896 5897 5897 5897 5897 5898 5898 5898 5899 5898 5899 5898 5898 5898 5898 5898 5898 5898 5898 5898 5897 5897 5897 5897 5897 5897
5814 5815 5818 5823 5829 5832 5834 5837 5839 5842 5846 5849 5851 5854 5854 5856 5857 5858 5859 5859 5860 5867 5874 5877 5880 5883 5885 5887 5889 5890 5891 5892 5892 5892 5893 5893 5894 5894 5895 5895 5895 5895 5896 5896 5896 5896 5896 5896 5896 5896 5896 5895 5895 5895 5895 5895 5895 5895 5895 5895 5895 5895 5894
5808 5812 5816 5822 5826 5828 5831 5834 5836 5839 5843 5845 5847 5848 5848 5851 5853 5853 5854 5854 5856 5863 5870 5873 5876 5879 5881 5884 5886 5887 5889 5889 5889 5890 5890 5891 5891 5892 5893 5893 5894 5894 5893 5894 5894 5893 5893 5894 5894 5894 5894 5893 5893 5893 5893 5893 5893 5893 5893 5893 5892 5892 5892
5807 5811 5813 5816 5819 5822 5826 5830 5833 5837 5840 5841 5842 5842 5843 5847 5848 5849 5850 5851 5852 5858 5865 5870 5873 5875 5878 5880 5882 5884 5886 5887 5887 5887 5888 5888 5889 5890 5891 5891 5891 5891 5891 5891 5891 5891 5891 5891 5891 5891 5891 5891 5891 5890 5890 5890 5890 5890 5890 5890 5890 5890 5889
5803 5805 5807 5809 5811 5815 5818 5821 5825 5829 5832 5836 5839 5840 5843 5844 5844 5846 5848 5847 5848 5854 5861 5866 5869 5872 5875 5877 5879 5881 5883 5884 5885 5885 5885 5886 5887 5887 5888 5888 5889 5889 5889 5889 5888 5888 5888 5889 5889 5888 5888 5888 5888 5888 5888 5888 5888 5887 5888 5888 5887 5887 5886
5796 5797 5799 5801 5804 5807 5811 5814 5818 5822 5826 5832 5834 5836 5838 5838 5837 5842 5843 5841 5845 5852 5858 5863 5866 5869 5871 5873 5875 5877 5879 5881 5881 5881 5882 5883 5884 5884 5885 5885 5886 5886 5886 5886 5886 5886 5886 5886 5886 5885 5885 5885 5885 5885 5885 5885 5885 5885 5885 5885 5884 5883 5881
5789 5791 5793 5797 5800 5802 5805 5808 5812 5816 5820 5824 5826 5830 5831 5829 5831 5836 5837 5837 5843 5850 5855 5859 5862 5865 5868 5870 5872 5873 5875 5877 5878 5878 5879 5880 5881 5881 5882 5882 5883 5883 5884 5883 5883 5883 5883 5883 5883 5882 5882 5882 5882 5882 5882 5882 5882 5882 5882 5881 5880 5879 5877
5786 5790 5793 5797 5799 5799 5801 5804 5807 5810 5813 5816 5821 5823 5823 5823 5827 5830 5831 5836 5842 5846 5850 5854 5858 5861 5864 5867 5869 5870 5872 5874 5875 5875 5876 5877 5878 5879 5879 5879 5880 5880 5881 5881 5881 5881 5881 5881 5880 5880 5880 5880 5880 5880 5879 5879 5879 5879 5879 5878 5876 5875 5873
5784 5789 5792 5794 5795 5795 5798 5801 5804 5807 5809 5811 5814 5815 5817 5822 5824 5823 5828 5836 5838 5840 5846 5850 5854 5857 5860 5863 5866 5868 5869 5871 5872 5872 5873 5874 5875 5875 5876 5877 5877 5877 5878 5878 5878 5879 5879 5878 5878 5878 5877 5877 5877 5877 5877 5877 5876 5876 5875 5874 5873 5872 5871
5780 5785 5787 5788 5789 5790 5793 5796 5799 5802 5805 5806 5808 5810 5815 5819 5818 5819 5827 5833 5833 5837 5843 5847 5850 5854 5856 5860 5863 5865 5866 5868 5868 5869 5870 5871 5872 5872 5873 5874 5874 5874 5875 5875 5876 5876 5876 5876 5876 5875 5875 5875 5875 5875 5874 5874 5873 5873 5872 5872 5871 5870 5870
5776 5780 5782 5783 5784 5784 5786 5790 5793 5797 5799 5801 5803 5807 5812 5814 5815 5819 5824 5827 5829 5834 5839 5843 5847 5850 5853 5856 5858 5860 5862 5864 5865 5866 5867 5868 5869 5870 5870 5871 5871 5872 5872 5872 5873 5873 5873 5873 5873 5873 5873 5872 5872 5872 5872 5871 5871 5870 5870 5870 5869 5868 5867
5771 5775 5777 5778 5779 5780 5781 5783 5787 5791 5794 5796 5799 5802 5806 5809 5812 5816 5819 5820 5823 5830 5835 5839 5842 5845 5849 5851 5853 5856 5858 5859 5861 5862 5864 5865 5866 5867 5867 5868 5868 5869 5869 5869 5870 5870 5870 5870 5870 5870 5870 5870 5870 5869 5869 5869 5868 5868 5868 5868 5867 5866 5865
5767 5771 5772 5772 5774 5775 5775 5777 5781 5784 5787 5790 5793 5797 5800 5804 5808 5811 5813 5814 5818 5826 5831 5834 5836 5840 5844 5847 5849 5852 5854 5855 5857 5859 5860 5862 5862 5863 5864 5865 5865 5865 5865 5866 5866 5867 5867 5866 5866 5866 5866 5866 5866 5866 5866 5866 5865 5865 5865 5865 5864 5863 5862
5763 5766 5767 5767 5769 5768 5767 5771 5777 5780 5783 5786 5789 5792 5795 5799 5803 5805 5806 5809 5816 5823 5827 5829 5832 5836 5840 5843 5845 5847 5850 5852 5854 5855 5857 5858 5859 5860 5861 5861 5862 5861 5862 5863 5863 5863 5863 5863 5862 5862 5862 5862 5862 5862 5862 5862 5862 5862 5862 5861 5861 5860 5858
5759 5761 5762 5763 5762 5761 5764 5772 5777 5777 5779 5781 5784 5786 5790 5794 5798 5800 5803 5808 5813 5818 5822 5825 5829 5833 5836 5839 5842 5843 5846 5848 5850 5852 5854 5855 5856 5857 5857 5858 5858 5857 5858 5859 5859 5859 5859 5858 5858 5858 5858 5858 5858 5858 5858 5858 5858 5858 5858 5857 5857 5856 5855
5755 5757 5759 5759 5757 5759 5766 5772 5773 5773 5776 5778 5780 5783 5786 5790 5793 5796 5800 5805 5809 5813 5818 5822 5825 5828 5832 5834 5837 5839 5841 5843 5845 5848 5850 5851 5852 5853 5853 5854 5854 5853 5854 5854 5854 5853 5853 5853 5853 5854 5854 5854 5854 5854 5854 5854 5854 5854 5854 5853 5852 5851 5850
5751 5753 5754 5754 5754 5758 5764 5767 5768 5771 5773 5774 5776 5778 5781 5784 5789 5792 5797 5802 5807 5810 5814 5818 5821 5824 5827 5829 5831 5834 5836 5838 5841 5843 5845 5847 5848 5848 5848 5849 5849 5849 5849 5849 5848 5848 5848 5848 5849 5850 5850 5850 5850 5850 5850 5850 5850 5850 5849 5848 5847 5846 5844
5746 5748 5749 5749 5752 5757 5760 5763 5765 5767 5769 5771 5773 5774 5777 5781 5785 5789 5794 5800 5804 5807 5811 5814 5817 5820 5822 5824 5827 5829 5832 5834 5836 5838 5840 5842 5843 5843 5843 5843 5843 5843 5843 5843 5842 5842 5842 5844 5845 5846 5846 5846 5846 5846 5846 5846 5845 5845 5844 5843 5842 5841 5839
5739 5742 5744 5746 5750 5754 5758 5760 5762 5765 5766 5769 5771 5771 5773 5777 5781 5786 5792 5797 5801 5804 5808 5810 5813 5815 5817 5819 5823 5826 5828 5830 5832 5834 5836 5837 5837 5838 5837 5837 5838 5838 5838 5837 5837 5838 5839 5840 5841 5841 5842 5842 5842 5842 5842 5841 5841 5840 5839 5838 5837 5836 5834
5735 5737 5739 5742 5746 5751 5754 5757 5759 5762 5764 5767 5768 5767 5768 5773 5779 5784 5790 5795 5798 5801 5804 5806 5809 5811 5813 5816 5819 5822 5824 5826 5828 5829 5831 5832 5832 5832 5832 5832 5833 5833 5833 5833 5833 5834 5835 5836 5836 5837 5837 5838 5838 5838 5837 5837 5836 5835 5833 5832 5831 5830 5828
5732 5734 5735 5738 5743 5746 5750 5753 5756 5759 5761 5764 5764 5762 5765 5772 5778 5782 5787 5792 5795 5798 5800 5803 5805 5808 5810 5813 5816 5818 5820 5821 5823 5824 5825 5826 5827 5827 5827 5828 5828 5828 5829 5829 5829 5830 5830 5831 5832 5832 5833 5833 5833 5833 5832 5832 5831 5829 5828 5827 5825 5823 5822
5729 5731 5733 5736 5739 5742 5746 5749 5752 5756 5758 5759 5759 5760 5765 5772 5776 5779 5784 5788 5791 5794 5796 5798 5801 5803 5806 5809 5811 5813 5815 5816 5817 5819 5820 5821 5822 5823 5823 5823 5823 5824 5825 5825 5825 5825 5826 5827 5828 5828 5828 5828 5828 5828 5827 5826 5825 5824 5822 5821 5819 5817 5815
5725 5728 5730 5733 5735 5738 5742 5746 5749 5752 5754 5755 5757 5760 5764 5768 5772 5776 5780 5784 5787 5790 5792 5794 5797 5799 5802 5805 5806 5808 5810 5811 5813 5815 5816 5816 5817 5818 5818 5819 5819 5820 5821 5821 5821 5822 5822 5823 5823 5823 5823 5823 5822 5822 5821 5820 5819 5818 5816 5814 5812 5810 5808
5722 5724 5727 5729 5731 5735 5739 5742 5745 5747 5749 5752 5755 5758 5760 5764 5768 5772 5776 5780 5783 5785 5788 5790 5793 5795 5798 5800 5802 5803 5805 5807 5808 5809 5810 5811 5812 5813 5813 5814 5815 5816 5817 5817 5818 5818 5818 5818 5818 5818 5817 5817 5816 5816 5815 5814 5813 5812 5810 5808 5806 5804 5802
5718 5719 5722 5725 5728 5731 5735 5738 5741 5743 5745 5748 5751 5754 5757 5760 5764 5768 5772 5776 5779 5781 5783 5786 5788 5790 5793 5795 5797 5799 5800 5802 5803 5804 5804 5806 5807 5807 5808 5809 5810 5811 5812 5812 5812 5812 5812 5812 5812 5812 5811 5810 5810 5809 5808 5807 5806 5805 5803 5801 5799 5797 5795
5714 5717 5719 5722 5725 5727 5730 5733 5736 5738 5741 5744 5747 5751 5754 5757 5760 5764 5768 5771 5774 5777 5779 5782 5784 5786 5789 5790 5792 5794 5795 5796 5797 5797 5798 5799 5801 5802 5803 5804 5804 5805 5805 5806 5806 5806 5807 5807 5806 5806 5805 5804 5803 5801 5800 5800 5799 5798 5796 5794 5792 5790 5788
5711 5714 5717 5720 5722 5723 5724 5728 5731 5733 5736 5739 5742 5746 5750 5753 5756 5760 5763 5766 5769 5772 5774 5777 5779 5781 5783 5785 5787 5788 5790 5791 5791 5792 5793 5794 5796 5797 5798 5798 5799 5800 5800 5801 5801 5801 5801 5801 5800 5799 5798 5797 5796 5794 5793 5792 5792 5791 5790 5788 5786 5784 5782
5708 5711 5714 5718 5719 5719 5720 5724 5728 5730 5733 5735 5737 5741 5745 5748 5751 5755 5759 5761 5764 5766 5768 5771 5773 5776 5778 5780 5781 5783 5784 5785 5786 5788 5789 5790 5791 5792 5793 5793 5794 5795 5796 5796 5796 5796 5795 5794 5793 5791 5791 5790 5788 5787 5786 5785 5785 5785 5784 5783 5781 5779 5777
5704 5708 5711 5714 5715 5715 5717 5721 5724 5727 5730 5732 5733 5736 5740 5744 5747 5750 5753 5756 5758 5760 5763 5765 5768 5770 5772 5774 5776 5777 5779 5780 5781 5783 5784 5786 5787 5787 5788 5788 5789 5790 5790 5790 5790 5790 5788 5786 5785 5785 5784 5783 5782 5780 5779 5779 5779 5778 5777 5777 5776 5774 5773
5699 5703 5706 5709 5711 5712 5714 5717 5720 5723 5726 5729 5730 5732 5735 5739 5743 5745 5748 5750 5752 5754 5756 5759 5762 5764 5766 5768 5769 5771 5773 5775 5777 5778 5779 5781 5781 5782 5783 5783 5784 5784 5784 5784 5783 5782 5781 5780 5780 5780 5779 5778 5777 5775 5773 5772 5772 5772 5771 5771 5771 5769 5768
5694 5698 5702 5705 5708 5710 5711 5714 5717 5720 5722 5724 5727 5728 5730 5733 5737 5740 5742 5744 5746 5748 5751 5753 5756 5757 5758 5760 5762 5764 5767 5770 5772 5773 5774 5775 5776 5777 5777 5778 5778 5778 5777 5777 5776 5776 5776 5775 5775 5775 5774 5773 5772 5770 5767 5766 5766 5766 5766 5766 5766 5764 5763
5690 5693 5697 5701 5705 5708 5709 5711 5714 5716 5717 5719 5722 5723 5725 5727 5730 5733 5736 5740 5742 5744 5746 5748 5749 5751 5752 5754 5757 5760 5762 5764 5766 5767 5768 5769 5770 5771 5771 5771 5771 5771 5771 5770 5770 5770 5770 5770 5770 5770 5769 5768 5766 5764 5763 5761 5761 5761 5761 5761 5760 5760 5759
5688 5690 5693 5697 5701 5704 5707 5709 5710 5711 5712 5715 5718 5720 5721 5723 5725 5726 5730 5734 5737 5739 5741 5743 5744 5746 5748 5751 5753 5755 5757 5758 5760 5761 5762 5763 5764 5765 5765 5765 5765 5765 5765 5765 5765 5765 5765 5764 5764 5764 5763 5762 5760 5759 5757 5756 5756 5756 5756 5755 5755 5755 5754
5685 5687 5689 5693 5697 5700 5702 5704 5707 5708 5709 5711 5714 5716 5718 5720 5722 5724 5726 5729 5732 5734 5736 5738 5740 5742 5745 5747 5748 5750 5752 5753 5754 5756 5757 5758 5758 5759 5759 5759 5759 5759 5759 5759 5759 5759 5759 5758 5757 5757 5756 5755 5754 5753 5752 5752 5751 5751 5750 5750 5750 5750 5749